CW4114 Weather Reports


Display with metric or nautical units.
time (UTC)temp
F
wind
direction
speed
MPH
gust
MPH
rain 1hr
in
rain 24hr
in
rain mn
in
humidity
%
barometer
mb
20181216124100 32 219 1.0 5.0 0.00 0.00 0.00 97 1018.3
20181216123605 32 283 1.0 7.0 0.00 0.00 0.00 97 1018.5
20181216123205 33 240 2.0 7.0 0.00 0.00 0.00 97 1018.2
20181216122557 33 197 3.0 7.0 0.00 0.00 0.00 97 1018.3
20181216122058 33 200 2.0 6.0 0.00 0.00 0.00 97 1018.5
20181216121700 33 218 3.0 7.0 0.00 0.00 0.00 97 1018.5
20181216121057 33 234 2.0 7.0 0.00 0.00 0.00 97 1018.4
20181216120557 33 190 3.0 8.0 0.00 0.00 0.00 97 1018.4
20181216120239 33 200 3.0 8.0 0.00 0.00 0.00 97 1018.4
20181216115558 33 182 4.0 9.0 0.00 0.00 0.00 97 1018.2
20181216115057 33 178 4.0 8.0 0.00 0.00 0.00 97 1018.2
20181216114727 33 188 4.0 9.0 0.00 0.00 0.00 97 1018.4
20181216114054 32 160 2.0 7.0 0.00 0.00 0.00 97 1018.5
20181216113554 32 190 2.0 7.0 0.00 0.00 0.00 97 1018.5
20181216113210 32 179 3.0 7.0 0.00 0.00 0.00 97 1018.4
20181216112551 32 172 3.0 7.0 0.00 0.00 0.00 97 1018.6
20181216112051 32 167 4.0 7.0 0.00 0.00 0.00 97 1018.7
20181216111631 32 178 2.0 7.0 0.00 0.00 0.00 98 1018.9
20181216111052 32 146 2.0 6.0 0.00 0.00 0.00 98 1019.3
20181216110553 32 178 1.0 6.0 0.00 0.00 0.00 97 1019.4
20181216110158 32 192 2.0 6.0 0.00 0.00 0.00 97 1019.3
20181216105544 31 173 1.0 7.0 0.00 0.00 0.00 98 1019.4
20181216105045 31 185 3.0 7.0 0.00 0.00 0.00 97 1019.5
20181216104638 30 174 2.0 4.0 0.00 0.00 0.00 97 1019.5
20181216104043 30 158 1.0 4.0 0.00 0.00 0.00 97 1019.6
20181216103541 30 205 0.0 4.0 0.00 0.00 0.00 97 1019.7
20181216103138 29 224 1.0 7.0 0.00 0.00 0.00 97 1019.7
20181216102539 29 269 1.0 7.0 0.00 0.00 0.00 98 1019.5
20181216102042 28 165 2.0 6.0 0.00 0.00 0.00 97 1019.4
20181216101645 28 212 3.0 7.0 0.00 0.00 0.00 97 1019.4
20181216101038 27 166 3.0 7.0 0.00 0.00 0.00 97 1019.5
20181216100534 26 189 3.0 7.0 0.00 0.00 0.00 97 1019.6
20181216100044 25 192 2.0 5.0 0.00 0.00 0.00 97 1019.7
20181216095530 24 178 2.0 4.0 0.00 0.00 0.00 96 1019.8
20181216095031 24 212 1.0 2.0 0.00 0.00 0.00 96 1019.9
20181216094550 24 230 1.0 2.0 0.00 0.00 0.00 96 1019.9
20181216094030 24 240 1.0 3.0 0.00 0.00 0.00 96 1019.9
20181216093530 24 239 1.0 3.0 0.00 0.00 0.00 96 1019.9
20181216093057 24 203 2.0 3.0 0.00 0.00 0.00 96 1019.8
20181216092527 24 212 1.0 3.0 0.00 0.00 0.00 96 1019.9
20181216092029 24 231 1.0 3.0 0.00 0.00 0.00 95 1020.0
20181216091622 24 218 1.0 2.0 0.00 0.00 0.00 95 1020.0
20181216091026 24 227 1.0 2.0 0.00 0.00 0.00 96 1020.0
20181216090531 24 234 1.0 2.0 0.00 0.00 0.00 96 1020.0
20181216090042 24 258 1.0 2.0 0.00 0.00 0.00 96 1020.1
20181216085529 24 219 1.0 3.0 0.00 0.00 0.00 96 1020.0
20181216085024 24 262 1.0 3.0 0.00 0.00 0.00 96 1020.2
20181216084605 24 217 1.0 3.0 0.00 0.00 0.00 96 1020.3
20181216084023 24 219 1.0 3.0 0.00 0.00 0.00 96 1020.4
20181216083521 24 219 1.0 3.0 0.00 0.00 0.00 95 1020.5
20181216083122 24 232 1.0 2.0 0.00 0.00 0.00 95 1020.7
20181216082525 24 236 1.0 2.0 0.00 0.00 0.00 96 1020.8
20181216082018 24 243 1.0 1.0 0.00 0.00 0.00 96 1020.7
20181216081540 24 256 1.0 1.0 0.00 0.00 0.00 96 1020.7
20181216081017 24 221 1.0 2.0 0.00 0.00 0.00 96 1020.7
20181216080517 25 221 1.0 2.0 0.00 0.00 0.00 96 1020.8
20181216080016 25 260 0.0 2.0 0.00 0.00 0.00 96 1020.9
20181216075515 25 260 1.0 2.0 0.00 0.00 0.00 96 1021.1
20181216075019 25 253 1.0 2.0 0.00 0.00 0.00 96 1021.1
20181216074528 25 224 1.0 3.0 0.00 0.00 0.00 96 1021.0
20181216074013 25 227 0.0 2.0 0.00 0.00 0.00 96 1021.0
20181216073516 25 250 0.0 2.0 0.00 0.00 0.00 96 1021.0
20181216073014 25 250 0.0 2.0 0.00 0.00 0.00 96 1021.1
20181216072510 25 212 0.0 0.0 0.00 0.00 0.00 96 1021.1
20181216072012 25 205 0.0 0.0 0.00 0.00 0.00 96 1021.1
20181216071520 25 205 0.0 1.0 0.00 0.00 0.00 96 1021.3
20181216071009 25 205 0.0 1.0 0.00 0.00 0.00 96 1021.3
20181216070509 25 205 0.0 1.0 0.00 0.00 0.00 96 1021.3
20181216070013 26 205 0.0 1.0 0.00 0.00 0.00 96 1021.2
20181216065511 26 205 0.0 2.0 0.00 0.00 0.00 96 1021.3
20181216065007 26 205 0.0 2.0 0.00 0.00 0.00 96 1021.3
20181216064532 26 205 1.0 2.0 0.00 0.00 0.00 96 1021.4
20181216064005 26 234 0.0 1.0 0.00 0.00 0.00 96 1021.4
20181216063504 26 260 0.0 1.0 0.00 0.00 0.00 96 1021.5
20181216063013 26 261 0.0 1.0 0.00 0.00 0.00 96 1021.5
20181216062503 26 234 0.0 2.0 0.00 0.00 0.00 96 1021.5
20181216062001 26 234 1.0 2.0 0.00 0.00 0.00 96 1021.5
20181216061502 26 246 0.0 2.0 0.00 0.00 0.00 96 1021.6
20181216061001 27 255 0.0 3.0 0.00 0.00 0.00 96 1021.7
20181216060605 27 269 1.0 3.0 0.00 0.00 0.00 96 1021.7
20181216060321 27 261 1.0 2.0 0.00 0.00 0.00 96 1021.7
20181216055602 27 220 1.0 2.0 0.00 0.00 0.00 96 1021.7
20181216055059 27 222 1.0 2.0 0.00 0.00 0.00 96 1021.6
20181216054623 27 263 0.0 0.0 0.00 0.00 0.00 96 1021.7
20181216054055 27 281 0.0 0.0 0.00 0.00 0.00 96 1021.8
20181216053554 27 281 0.0 2.0 0.00 0.00 0.00 96 1021.8
20181216053154 27 281 0.0 2.0 0.00 0.00 0.00 96 1021.9
20181216052558 28 282 0.0 2.0 0.00 0.00 0.00 96 1021.9
20181216052052 28 276 0.0 2.0 0.00 0.00 0.00 96 1021.9
20181216051641 28 269 1.0 2.0 0.00 0.00 0.00 96 1021.9
20181216051052 28 219 0.0 2.0 0.00 0.00 0.00 96 1022.0
20181216050550 28 219 0.0 3.0 0.00 0.00 0.00 96 1022.0
20181216050122 28 218 1.0 3.0 0.00 0.00 0.00 96 1022.1
20181216045548 28 210 1.0 3.0 0.00 0.00 0.00 96 1022.1
20181216045053 29 234 1.0 3.0 0.00 0.00 0.00 96 1022.1
20181216044621 29 233 1.0 3.0 0.00 0.00 0.00 96 1022.0
20181216044046 29 222 2.0 3.0 0.00 0.00 0.00 96 1022.1
20181216043547 29 226 1.0 3.0 0.00 0.00 0.00 96 1022.1
20181216043131 29 206 1.0 4.0 0.00 0.00 0.00 96 1022.1
20181216042547 29 211 2.0 4.0 0.00 0.00 0.00 96 1022.2
20181216042049 29 219 1.0 3.0 0.00 0.00 0.00 96 1022.2
20181216041724 29 213 2.0 3.0 0.00 0.00 0.00 96 1022.4
20181216041049 29 219 2.0 3.0 0.00 0.00 0.00 96 1022.5
20181216040546 29 218 1.0 3.0 0.00 0.00 0.00 96 1022.5
20181216040115 30 228 1.0 3.0 0.00 0.00 0.00 96 1022.6
20181216035544 29 223 1.0 4.0 0.00 0.00 0.00 96 1022.6
20181216035044 29 215 1.0 4.0 0.00 0.00 0.00 96 1022.5
20181216034626 29 207 1.0 3.0 0.00 0.00 0.00 96 1022.5
20181216034046 29 217 1.0 3.0 0.00 0.00 0.00 96 1022.6
20181216033548 29 228 1.0 3.0 0.00 0.00 0.00 95 1022.7
20181216033127 29 209 0.0 3.0 0.00 0.00 0.00 95 1022.8
20181216032542 29 210 1.0 3.0 0.00 0.00 0.00 95 1022.9
20181216032041 29 202 0.0 3.0 0.00 0.00 0.00 95 1022.8
20181216031608 29 244 1.0 3.0 0.00 0.00 0.00 95 1023.1
20181216031045 28 205 1.0 2.0 0.00 0.00 0.00 95 1023.1
20181216030545 28 235 0.0 3.0 0.00 0.00 0.00 95 1023.1
20181216030101 29 231 1.0 3.0 0.00 0.00 0.00 95 1023.2
20181216025541 29 235 1.0 3.0 0.00 0.00 0.00 95 1023.2
20181216025041 29 228 0.0 2.0 0.00 0.00 0.00 95 1023.3
20181216024614 29 271 0.0 3.0 0.00 0.00 0.00 94 1023.2
20181216024045 29 271 0.0 3.0 0.00 0.00 0.00 94 1023.3
20181216023540 29 165 2.0 3.0 0.00 0.00 0.00 94 1023.2
20181216023102 29 269 0.0 2.0 0.00 0.00 0.00 94 1023.3
20181216022540 29 189 0.0 2.0 0.00 0.00 0.00 94 1023.4
20181216021622 30 215 0.0 2.0 0.00 0.00 0.00 94 1023.4
20181216021041 30 216 1.0 2.0 0.00 0.00 0.00 94 1023.4
20181216020539 31 282 0.0 3.0 0.00 0.00 0.00 94 1023.5
20181216020118 31 182 0.0 3.0 0.00 0.00 0.00 94 1023.4
20181216015538 31 162 0.0 5.0 0.00 0.00 0.00 94 1023.4
20181216015039 32 170 0.0 6.0 0.00 0.00 0.00 94 1023.5
20181216014625 32 188 2.0 4.0 0.00 0.00 0.00 94 1023.5
20181216014041 32 158 1.0 5.0 0.00 0.00 0.00 94 1023.4
20181216013540 32 186 1.0 5.0 0.00 0.00 0.00 94 1023.5
20181216013135 32 177 2.0 5.0 0.00 0.00 0.00 94 1023.5
20181216012540 32 194 2.0 6.0 0.00 0.00 0.00 94 1023.6
20181216012037 32 190 3.0 6.0 0.00 0.00 0.00 94 1023.5
20181216011037 32 163 4.0 7.0 0.00 0.00 0.00 94 1023.5
20181216010536 32 198 3.0 6.0 0.00 0.00 0.00 94 1023.4
20181216010046 32 201 3.0 6.0 0.00 0.00 0.00 93 1023.5
20181216005537 32 187 3.0 5.0 0.00 0.00 0.00 93 1023.4
20181216005035 32 216 1.0 5.0 0.00 0.00 0.00 93 1023.5
20181216004559 32 182 3.0 6.0 0.00 0.00 0.00 93 1023.6
20181216004037 32 167 2.0 6.0 0.00 0.00 0.00 93 1023.6
20181216003535 32 187 2.0 5.0 0.00 0.00 0.00 93 1023.6
20181216003052 32 184 2.0 5.0 0.00 0.00 0.00 93 1023.7
20181216002536 32 190 2.0 5.0 0.00 0.00 0.00 93 1023.8
20181216002034 32 167 1.0 5.0 0.00 0.00 0.00 93 1023.8
20181216001622 32 175 2.0 5.0 0.00 0.00 0.00 93 1023.9
20181216001034 32 179 1.0 5.0 0.00 0.00 0.00 93 1023.9
20181216000533 32 176 2.0 5.0 0.00 0.00 0.00 93 1023.8
20181216000052 31 199 2.0 4.0 0.00 0.00 0.00 92 1023.9
20181215235534 32 169 1.0 3.0 0.00 0.00 0.00 92 1023.9
20181215235037 32 172 1.0 3.0 0.00 0.00 0.00 92 1023.9
20181215234556 32 174 0.0 3.0 0.00 0.00 0.00 92 1023.8
20181215234033 32 205 0.0 3.0 0.00 0.00 0.00 93 1023.8
20181215233537 32 209 0.0 3.0 0.00 0.00 0.00 92 1023.7
20181215233132 32 215 0.0 3.0 0.00 0.00 0.00 92 1023.8
20181215232535 32 167 2.0 3.0 0.00 0.00 0.00 92 1023.8
20181215232032 32 186 1.0 3.0 0.00 0.00 0.00 91 1023.9
20181215231610 32 177 1.0 3.0 0.00 0.00 0.00 91 1023.9
20181215231032 32 195 0.0 3.0 0.00 0.00 0.00 91 1023.9
20181215230534 32 163 0.0 2.0 0.00 0.00 0.00 91 1023.8
20181215230153 32 163 0.0 0.0 0.00 0.00 0.00 90 1023.8
20181215225530 33 163 0.0 0.0 0.00 0.00 0.00 90 1023.8
20181215225030 33 163 0.0 0.0 0.00 0.00 0.00 90 1023.6
20181215224555 33 163 0.0 2.0 0.00 0.00 0.00 89 1023.8
20181215224030 34 163 0.0 2.0 0.00 0.00 0.00 89 1023.7
20181215223530 34 161 0.0 0.0 0.00 0.00 0.00 89 1023.6
20181215223129 34 160 0.0 0.0 0.00 0.00 0.00 88 1023.4
20181215222533 35 160 0.0 0.0 0.00 0.00 0.00 89 1023.3
20181215222034 35 179 0.0 0.0 0.00 0.00 0.00 89 1023.2
20181215221619 35 179 0.0 3.0 0.00 0.00 0.00 89 1023.4
20181215221030 35 221 0.0 3.0 0.00 0.00 0.00 89 1023.5
20181215220532 36 173 1.0 4.0 0.00 0.00 0.00 89 1023.5
20181215220043 36 179 1.0 4.0 0.00 0.00 0.00 89 1023.6
20181215215531 36 179 1.0 4.0 0.00 0.00 0.00 89 1023.7
20181215215029 36 141 1.0 4.0 0.00 0.00 0.00 89 1023.7
20181215214612 37 149 1.0 3.0 0.00 0.00 0.00 89 1023.4
20181215214029 37 156 1.0 5.0 0.00 0.00 0.00 89 1023.4
20181215213533 37 150 1.0 5.0 0.00 0.00 0.00 89 1023.4
20181215213043 37 176 2.0 5.0 0.00 0.00 0.00 89 1023.3
20181215212532 37 129 1.0 4.0 0.00 0.00 0.00 90 1023.4
20181215212033 37 134 0.0 4.0 0.00 0.00 0.00 90 1023.2
20181215211629 37 129 1.0 6.0 0.00 0.00 0.00 90 1023.3
20181215211031 37 109 2.0 6.0 0.00 0.00 0.00 90 1023.2
20181215210528 37 94 2.0 5.0 0.00 0.00 0.00 90 1023.1
20181215210047 37 106 2.0 7.0 0.00 0.00 0.00 90 1023.1
20181215205529 37 96 3.0 7.0 0.00 0.00 0.00 90 1023.0
20181215205026 38 104 4.0 7.0 0.00 0.00 0.00 91 1023.0
20181215204538 37 89 3.0 7.0 0.00 0.00 0.00 91 1022.9
20181215204031 37 119 4.0 8.0 0.00 0.00 0.00 91 1022.8
20181215203529 38 124 3.0 8.0 0.00 0.00 0.00 90 1022.8
20181215203028 38 117 4.0 8.0 0.00 0.00 0.00 90 1022.8
20181215202528 38 121 4.0 7.0 0.00 0.00 0.00 90 1022.9
20181215202025 38 100 2.0 7.0 0.00 0.00 0.00 89 1022.7
20181215201553 38 80 2.0 8.0 0.00 0.00 0.00 90 1022.7
20181215201026 38 103 5.0 8.0 0.00 0.00 0.00 90 1022.7
20181215200524 38 92 3.0 7.0 0.00 0.00 0.00 90 1022.6
20181215200032 38 80 3.0 8.0 0.00 0.00 0.00 90 1022.7
20181215195530 38 97 2.0 8.0 0.00 0.00 0.00 90 1022.6
20181215195023 38 108 3.0 7.0 0.00 0.00 0.00 89 1022.6
20181215194539 38 97 4.0 8.0 0.00 0.00 0.00 89 1022.5
20181215194026 38 121 4.0 8.0 0.00 0.00 0.00 89 1022.5
20181215193528 38 81 3.0 8.0 0.00 0.00 0.00 89 1022.4
20181215193054 38 103 4.0 8.0 0.00 0.00 0.00 88 1022.5
20181215192523 38 105 3.0 8.0 0.00 0.00 0.00 87 1022.6
20181215192026 39 96 3.0 8.0 0.00 0.00 0.00 87 1022.5
20181215191530 39 101 4.0 8.0 0.00 0.00 0.00 85 1022.4
20181215191023 39 106 3.0 8.0 0.00 0.00 0.00 84 1022.4
20181215190526 40 87 4.0 9.0 0.00 0.00 0.00 83 1022.5
20181215190114 40 74 4.0 9.0 0.00 0.00 0.00 82 1022.6
20181215185521 40 98 4.0 7.0 0.00 0.00 0.00 82 1022.6
20181215185023 40 101 1.0 9.0 0.00 0.00 0.00 83 1022.7
20181215184554 40 110 4.0 8.0 0.00 0.00 0.00 83 1022.6
20181215184023 40 115 3.0 7.0 0.00 0.00 0.00 84 1022.8
20181215183525 40 89 3.0 7.0 0.00 0.00 0.00 86 1022.7
20181215183043 40 99 3.0 7.0 0.00 0.00 0.00 87 1022.8
20181215182519 39 77 3.0 7.0 0.00 0.00 0.00 88 1022.8
20181215182019 39 101 4.0 7.0 0.00 0.00 0.00 87 1023.0
20181215181549 39 117 4.0 7.0 0.00 0.00 0.00 86 1023.0
20181215181022 40 87 3.0 6.0 0.00 0.00 0.00 87 1023.0
20181215180519 40 87 4.0 7.0 0.00 0.00 0.00 86 1023.0
20181215180042 40 89 3.0 7.0 0.00 0.00 0.00 87 1023.1
20181215175520 40 162 1.0 6.0 0.00 0.00 0.00 87 1023.1
20181215175020 39 83 2.0 6.0 0.00 0.00 0.00 86 1023.1
20181215174528 39 80 2.0 6.0 0.00 0.00 0.00 87 1023.1
20181215174018 39 86 3.0 6.0 0.00 0.00 0.00 86 1023.1
20181215173517 40 123 2.0 6.0 0.00 0.00 0.00 86 1023.2
20181215173021 40 114 2.0 6.0 0.00 0.00 0.00 86 1023.2
20181215172518 40 127 2.0 6.0 0.00 0.00 0.00 85 1023.5
20181215172017 40 86 3.0 5.0 0.00 0.00 0.00 86 1023.5
20181215171525 39 88 0.0 5.0 0.00 0.00 0.00 87 1023.7
20181215171018 39 125 2.0 5.0 0.00 0.00 0.00 87 1023.7
20181215170516 39 84 0.0 3.0 0.00 0.00 0.00 88 1023.6
20181215170031 38 143 1.0 3.0 0.00 0.00 0.00 87 1023.7
20181215165513 38 47 1.0 3.0 0.00 0.00 0.00 88 1023.6
20181215165013 38 80 0.0 3.0 0.00 0.00 0.00 88 1023.6
20181215164539 38 28 1.0 3.0 0.00 0.00 0.00 88 1023.5
20181215164012 37 66 0.0 3.0 0.00 0.00 0.00 88 1023.7
20181215163511 37 56 1.0 3.0 0.00 0.00 0.00 88 1023.7
20181215163012 37 24 1.0 3.0 0.00 0.00 0.00 88 1023.7
20181215162513 38 353 1.0 3.0 0.00 0.00 0.00 88 1023.8
20181215162009 38 24 0.0 3.0 0.00 0.00 0.00 88 1023.8
20181215161518 38 25 0.0 3.0 0.00 0.00 0.00 87 1023.9
20181215161011 38 24 0.0 3.0 0.00 0.00 0.00 88 1024.1
20181215160510 37 299 0.0 3.0 0.00 0.00 0.00 88 1024.0
20181215160014 37 328 0.0 3.0 0.00 0.00 0.00 88 1024.0
20181215155005 37 25 0.0 4.0 0.00 0.00 0.00 89 1024.1
20181215154524 37 339 0.0 4.0 0.00 0.00 0.00 88 1024.0
20181215154004 36 322 0.0 3.0 0.00 0.00 0.00 88 1023.9
20181215153505 36 342 0.0 3.0 0.00 0.00 0.00 89 1023.9
20181215153005 36 327 0.0 3.0 0.00 0.00 0.00 89 1024.1
20181215152600 36 324 0.0 2.0 0.00 0.00 0.00 89 1024.1
20181215152059 35 248 0.0 2.0 0.00 0.00 0.00 90 1024.1
20181215151620 35 267 0.0 2.0 0.00 0.00 0.00 90 1024.0
20181215151057 34 258 0.0 3.0 0.00 0.00 0.00 91 1024.1
20181215150557 34 269 1.0 3.0 0.00 0.00 0.00 92 1024.0
20181215150105 33 231 0.0 4.0 0.00 0.00 0.00 93 1024.1
20181215145559 32 256 2.0 4.0 0.00 0.00 0.00 93 1024.1
20181215145055 32 243 2.0 4.0 0.00 0.00 0.00 94 1024.1
20181215144700 31 237 2.0 4.0 0.00 0.00 0.00 94 1024.2
20181215144056 31 235 2.0 4.0 0.00 0.00 0.00 94 1024.1
20181215143552 30 269 2.0 4.0 0.00 0.00 0.00 95 1024.0
20181215143156 30 274 2.0 4.0 0.00 0.00 0.00 94 1024.2
20181215142550 30 258 1.0 4.0 0.00 0.00 0.00 94 1024.3
20181215142053 30 237 2.0 4.0 0.00 0.00 0.00 94 1024.2
20181215141703 29 261 2.0 4.0 0.00 0.00 0.00 94 1023.9
20181215141048 29 275 2.0 4.0 0.00 0.00 0.00 94 1024.0
20181215140547 29 235 2.0 4.0 0.00 0.00 0.00 94 1023.9
20181215140134 29 267 2.0 4.0 0.00 0.00 0.00 94 1024.1
20181215135546 29 266 1.0 3.0 0.00 0.00 0.00 94 1024.1
20181215135045 29 294 1.0 3.0 0.00 0.00 0.00 94 1024.1
20181215134743 29 281 2.0 3.0 0.00 0.00 0.00 94 1024.1
20181215134047 29 253 2.0 3.0 0.00 0.00 0.00 94 1024.1
20181215133544 28 275 1.0 3.0 0.00 0.00 0.00 93 1024.0
20181215133140 28 291 1.0 3.0 0.00 0.00 0.00 93 1024.0
20181215132541 28 293 1.0 2.0 0.00 0.00 0.00 93 1024.1
20181215132041 28 290 0.0 2.0 0.00 0.00 0.00 92 1024.2
20181215131611 28 274 1.0 2.0 0.00 0.00 0.00 92 1024.1
20181215131039 29 272 1.0 2.0 0.00 0.00 0.00 92 1024.0
20181215130536 29 264 1.0 2.0 0.00 0.00 0.00 92 1024.0
20181215130115 29 286 1.0 2.0 0.00 0.00 0.00 92 1023.8
20181215125533 29 256 0.0 2.0 0.00 0.00 0.00 92 1023.7
20181215125033 29 257 0.0 3.0 0.00 0.00 0.00 92 1023.5
20181215124628 29 294 0.0 3.0 0.00 0.00 0.00 92 1023.6